INTELSAT 32E (IS-32E)

Last updated on Sat Jun 21 2025 00:02:45 GMT+0000 (Coordinated Universal Time)

1 41945U 17007B 25171.49400500 -.00000258 00000+0 00000+0 0 9990 2 41945 0.0187 63.3026 0001205 279.5951 60.7071 1.00267441 30590
UTC large
Height (km)
Speed (km/s)
/
Latitude / Longitude
Inclination (degrees)
Orbital Period (minutes)
Azimuth
Elevation
Range (km)
Doppler Factor

Next 0 passes for location: London (51.5072 / 0.1276)

Sorry there are no passes over London.